,,Stat6,,Stat2,,Stat8,,Stat9,,Stat10,,Wind1,,Wind1,
time,status,PA1M_AVG,status,PR1M_SUM,status,RH1M_AVG,status,SR1M_AVG,status,TA1M_AVG,status,W1dAve1m,status,W1sAve1m,
2004-10-12, 00:00:01,VALID,920.434,VALID,0,VALID,100,VALID,-0.0169808,VALID,19.463,VALID,83,VALID,0.645894,
2004-10-12, 00:01:01,VALID,920.434,VALID,0,VALID,100,VALID,0,VALID,19.4591,VALID,100,VALID,0.929874,
2004-10-12, 00:02:00,VALID,920.418,VALID,0,VALID,100,VALID,0,VALID,19.4625,VALID,100,VALID,0.894271,
2004-10-12, 00:03:00,VALID,920.403,VALID,0,VALID,100,VALID,-0.0169808,VALID,19.4752,VALID,123,VALID,0.559048,
2004-10-12, 00:04:00,VALID,920.384,VALID,0,VALID,100,VALID,0,VALID,19.4814,VALID,123,VALID,0.11772,
2004-10-12, 00:05:00,VALID,920.363,VALID,0,VALID,100,VALID,0,VALID,19.5045,VALID,118,VALID,0.213728,
2004-10-12, 00:06:00,VALID,920.342,VALID,0,VALID,100,VALID,-0.0169808,VALID,19.5077,VALID,82,VALID,0.411328,
2004-10-12, 00:07:00,VALID,920.325,VALID,0,VALID,100,VALID,-0.0339617,VALID,19.5202,VALID,79,VALID,0.43733,
2004-10-12, 00:08:01,VALID,920.306,VALID,0,VALID,100,VALID,-0.0169808,VALID,19.5172,VALID,79,VALID,0.344308,
2004-10-12, 00:09:01,VALID,920.291,VALID,0,VALID,100,VALID,0,VALID,19.5169,VALID,79,VALID,0.130149,
2004-10-12, 00:10:00,VALID,920.246,VALID,0,VALID,100,VALID,0,VALID,19.5403,VALID,79,VALID,0,
2004-10-12, 00:11:01,VALID,920.218,VALID,0,VALID,100,VALID,-0.0169808,VALID,19.5398,VALID,79,VALID,0,
2004-10-12, 00:12:00,VALID,920.172,VALID,0,VALID,100,VALID,0,VALID,19.5425,VALID,79,VALID,0,
2004-10-12, 00:13:00,VALID,920.133,VALID,0,VALID,100,VALID,0,VALID,19.5425,VALID,79,VALID,0,
2004-10-12, 00:14:00,VALID,920.09,VALID,0,VALID,100,VALID,0,VALID,19.5525,VALID,79,VALID,0,
2004-10-12, 00:15:00,VALID,920.075,VALID,0,VALID,100,VALID,0,VALID,19.576,VALID,79,VALID,0,
2004-10-12, 00:16:01,VALID,920.059,VALID,0,VALID,100,VALID,0,VALID,19.5751,VALID,79,VALID,0,
2004-10-12, 00:17:00,VALID,920.038,VALID,0,VALID,100,VALID,0.0169808,VALID,19.5716,VALID,79,VALID,0,
2004-10-12, 00:18:01,VALID,920.009,VALID,0,VALID,100,VALID,0,VALID,19.5847,VALID,79,VALID,0,
2004-10-12, 00:19:00,VALID,919.972,VALID,0,VALID,100,VALID,0.0339617,VALID,19.5815,VALID,79,VALID,0,
2004-10-12, 00:20:01,VALID,919.92,VALID,0,VALID,100,VALID,0.0169808,VALID,19.5788,VALID,79,VALID,0,
2004-10-12, 00:21:01,VALID,919.864,VALID,0,VALID,100,VALID,0,VALID,19.5716,VALID,79,VALID,0.00639205,
2004-10-12, 00:22:00,VALID,919.815,VALID,0,VALID,100,VALID,0.0339617,VALID,19.5882,VALID,79,VALID,0.111806,
2004-10-12, 00:23:01,VALID,919.776,VALID,0,VALID,100,VALID,0.0169808,VALID,19.585,VALID,79,VALID,0.00223214,
2004-10-12, 00:24:00,VALID,919.744,VALID,0,VALID,100,VALID,0.0169808,VALID,19.5743,VALID,79,VALID,0,
2004-10-12, 00:25:00,VALID,919.731,VALID,0,VALID,100,VALID,0.0509425,VALID,19.5947,VALID,79,VALID,0,
2004-10-12, 00:26:00,VALID,919.733,VALID,0,VALID,100,VALID,0.0339617,VALID,19.5885,VALID,79,VALID,0,
2004-10-12, 00:27:01,VALID,919.737,VALID,0,VALID,100,VALID,0.0169808,VALID,19.5686,VALID,79,VALID,0,
2004-10-12, 00:28:01,VALID,919.747,VALID,0,VALID,100,VALID,0.0339617,VALID,19.5718,VALID,78,VALID,0.338034,
2004-10-12, 00:29:00,VALID,919.747,VALID,0,VALID,100,VALID,0.0339617,VALID,19.5522,VALID,73,VALID,0.49628,
2004-10-12, 00:30:00,VALID,919.765,VALID,0,VALID,100,VALID,0,VALID,19.5537,VALID,68,VALID,0.405678,
2004-10-12, 00:31:00,VALID,919.765,VALID,0,VALID,100,VALID,0.0169808,VALID,19.5274,VALID,36,VALID,0.480196,
2004-10-12, 00:32:01,VALID,919.771,VALID,0,VALID,100,VALID,0.0169808,VALID,19.5043,VALID,6,VALID,0.528525,
2004-10-12, 00:33:00,VALID,919.782,VALID,0,VALID,100,VALID,0.0169808,VALID,19.4981,VALID,6,VALID,0.408537,
2004-10-12, 00:34:01,VALID,919.785,VALID,0,VALID,100,VALID,0.0509425,VALID,19.4717,VALID,6,VALID,0.334263,
2004-10-12, 00:35:00,VALID,919.793,VALID,0,VALID,100,VALID,0.0339617,VALID,19.4623,VALID,337,VALID,0.454055,
2004-10-12, 00:36:00,VALID,919.797,VALID,0,VALID,100,VALID,0.0169808,VALID,19.4494,VALID,278,VALID,0.47619,
2004-10-12, 00:37:01,VALID,919.787,VALID,0,VALID,100,VALID,0.0169808,VALID,19.4362,VALID,247,VALID,0.580859,
2004-10-12, 00:38:01,VALID,919.775,VALID,0,VALID,100,VALID,0.0169808,VALID,19.4136,VALID,246,VALID,0.571429,
2004-10-12, 00:39:00,VALID,919.773,VALID,0,VALID,100,VALID,0.0339617,VALID,19.4076,VALID,246,VALID,0.390997,
2004-10-12, 00:40:00,VALID,919.757,VALID,0,VALID,100,VALID,0.0169808,VALID,19.3883,VALID,246,VALID,0.206214,
2004-10-12, 00:41:00,VALID,919.754,VALID,0,VALID,100,VALID,0,VALID,19.3689,VALID,245,VALID,0.131479,
2004-10-12, 00:42:00,VALID,919.74,VALID,0,VALID,100,VALID,0,VALID,19.3523,VALID,244,VALID,0.228016,
2004-10-12, 00:43:01,VALID,919.734,VALID,0,VALID,100,VALID,0,VALID,19.3592,VALID,244,VALID,0.0457317,
2004-10-12, 00:44:00,VALID,919.722,VALID,0,VALID,100,VALID,0,VALID,19.3329,VALID,177,VALID,0.265439,
2004-10-12, 00:45:00,VALID,919.696,VALID,0,VALID,100,VALID,0,VALID,19.32,VALID,131,VALID,0.59375,
2004-10-12, 00:46:00,VALID,919.671,VALID,0,VALID,100,VALID,0.0509425,VALID,19.2914,VALID,131,VALID,0.572856,
2004-10-12, 00:47:00,VALID,919.651,VALID,0,VALID,100,VALID,0.0679233,VALID,19.2686,VALID,131,VALID,0.257813,
2004-10-12, 00:48:01,VALID,919.614,VALID,0,VALID,100,VALID,0.0169808,VALID,19.2462,VALID,131,VALID,0.18192,
2004-10-12, 00:49:00,VALID,919.597,VALID,0,VALID,100,VALID,0.0169808,VALID,19.2296,VALID,131,VALID,0.0356326,
2004-10-12, 00:50:00,VALID,919.598,VALID,0,VALID,100,VALID,0.0169808,VALID,19.2206,VALID,131,VALID,0.0294922,
2004-10-12, 00:51:00,VALID,919.615,VALID,0,VALID,100,VALID,0.0169808,VALID,19.1881,VALID,129,VALID,0.30434,
2004-10-12, 00:52:00,VALID,919.648,VALID,0,VALID,100,VALID,0,VALID,19.1399,VALID,31,VALID,0.581676,
2004-10-12, 00:53:01,VALID,919.685,VALID,0,VALID,100,VALID,0.0509425,VALID,19.0783,VALID,30,VALID,0.533681,
2004-10-12, 00:54:00,VALID,919.728,VALID,0,VALID,100,VALID,0.0169808,VALID,19.0202,VALID,25,VALID,0.690225,
2004-10-12, 00:55:01,VALID,919.753,VALID,0,VALID,100,VALID,0,VALID,18.9914,VALID,19,VALID,0.772773,
2004-10-12, 00:56:00,VALID,919.772,VALID,0,VALID,100,VALID,0,VALID,18.9879,VALID,18,VALID,0.698331,
2004-10-12, 00:57:00,VALID,919.759,VALID,0,VALID,100,VALID,0.0679233,VALID,19.0108,VALID,13,VALID,0.447396,
2004-10-12, 00:58:00,VALID,919.767,VALID,0,VALID,100,VALID,0.0679233,VALID,19.0555,VALID,286,VALID,0.445871,
2004-10-12, 00:59:01,VALID,919.761,VALID,0,VALID,100,VALID,0.0339617,VALID,19.0848,VALID,249,VALID,0.356213,
2004-10-12, 01:00:00,VALID,919.773,VALID,0,VALID,100,VALID,0.0169808,VALID,19.1009,VALID,249,VALID,0.349516,
2004-10-12, 01:01:00,VALID,919.772,VALID,0,VALID,100,VALID,0.0169808,VALID,19.1208,VALID,249,VALID,0.258384,
2004-10-12, 01:02:01,VALID,919.763,VALID,0,VALID,100,VALID,0.0169808,VALID,19.1402,VALID,249,VALID,0.034702,
2004-10-12, 01:03:00,VALID,919.749,VALID,0,VALID,100,VALID,0,VALID,19.1335,VALID,249,VALID,0,
2004-10-12, 01:04:01,VALID,919.735,VALID,0,VALID,100,VALID,0.0169808,VALID,19.1332,VALID,249,VALID,0,
2004-10-12, 01:05:00,VALID,919.701,VALID,0,VALID,100,VALID,0,VALID,19.1173,VALID,249,VALID,0.00111607,
2004-10-12, 01:06:00,VALID,919.676,VALID,0,VALID,100,VALID,0,VALID,19.1074,VALID,249,VALID,0,
2004-10-12, 01:07:00,VALID,919.651,VALID,0,VALID,100,VALID,0,VALID,19.0915,VALID,249,VALID,0,
2004-10-12, 01:08:00,VALID,919.619,VALID,0,VALID,100,VALID,0,VALID,19.053,VALID,249,VALID,0,
2004-10-12, 01:09:00,VALID,919.613,VALID,0,VALID,100,VALID,0.0169808,VALID,18.9946,VALID,242,VALID,0.087358,
2004-10-12, 01:10:00,VALID,919.613,VALID,0,VALID,100,VALID,0.0169808,VALID,18.9499,VALID,180,VALID,0.369606,
2004-10-12, 01:11:00,VALID,919.589,VALID,0,VALID,100,VALID,0.0169808,VALID,18.9042,VALID,171,VALID,0.405107,
2004-10-12, 01:12:00,VALID,919.587,VALID,0,VALID,100,VALID,0.0169808,VALID,18.895,VALID,169,VALID,0.549733,
2004-10-12, 01:13:01,VALID,919.576,VALID,0,VALID,100,VALID,0.0169808,VALID,18.9146,VALID,169,VALID,0.353087,
2004-10-12, 01:14:01,VALID,919.567,VALID,0,VALID,100,VALID,0,VALID,18.9109,VALID,167,VALID,0.399071,
2004-10-12, 01:15:00,VALID,919.556,VALID,0,VALID,100,VALID,0,VALID,18.9079,VALID,148,VALID,0.504092,
2004-10-12, 01:16:01,VALID,919.556,VALID,0,VALID,100,VALID,0.0169808,VALID,18.9179,VALID,143,VALID,0.672256,
2004-10-12, 01:17:00,VALID,919.534,VALID,0,VALID,100,VALID,0,VALID,18.9072,VALID,137,VALID,0.726926,
2004-10-12, 01:18:01,VALID,919.518,VALID,0,VALID,100,VALID,0.0679233,VALID,18.9494,VALID,130,VALID,0.49043,
2004-10-12, 01:19:00,VALID,919.498,VALID,0,VALID,100,VALID,0.101885,VALID,18.9416,VALID,129,VALID,0.588281,
2004-10-12, 01:20:01,VALID,919.486,VALID,0,VALID,100,VALID,0.101885,VALID,18.9805,VALID,129,VALID,0.287704,
2004-10-12, 01:21:00,VALID,919.457,VALID,0,VALID,100,VALID,0.101885,VALID,18.987,VALID,129,VALID,0.135937,
2004-10-12, 01:22:01,VALID,919.429,VALID,0,VALID,100,VALID,0.101885,VALID,18.9905,VALID,129,VALID,0.0437863,
2004-10-12, 01:23:00,VALID,919.4,VALID,0,VALID,100,VALID,0.101885,VALID,18.9934,VALID,129,VALID,0.185683,
2004-10-12, 01:24:00,VALID,919.371,VALID,0,VALID,100,VALID,0.101885,VALID,18.9937,VALID,129,VALID,0.214648,
2004-10-12, 01:25:00,VALID,919.341,VALID,0,VALID,100,VALID,0.101885,VALID,19.0098,VALID,129,VALID,0.23787,
2004-10-12, 01:26:00,VALID,919.344,VALID,0,VALID,100,VALID,0.101885,VALID,19.0394,VALID,129,VALID,0.0131944,
2004-10-12, 01:27:01,VALID,919.353,VALID,0,VALID,100,VALID,0.101885,VALID,19.0391,VALID,129,VALID,0.0158155,
2004-10-12, 01:28:01,VALID,919.378,VALID,0,VALID,100,VALID,0.0679233,VALID,18.984,VALID,129,VALID,0.0543155,
2004-10-12, 01:29:00,VALID,919.399,VALID,0,VALID,100,VALID,0.0849042,VALID,18.8807,VALID,129,VALID,0.265447,
2004-10-12, 01:30:00,VALID,919.425,VALID,0,VALID,100,VALID,0.101885,VALID,18.8422,VALID,129,VALID,0.282924,
2004-10-12, 01:31:00,VALID,919.426,VALID,0,VALID,100,VALID,0.101885,VALID,18.8224,VALID,129,VALID,0.254261,
2004-10-12, 01:32:01,VALID,919.411,VALID,0,VALID,100,VALID,0.0849042,VALID,18.8097,VALID,129,VALID,0.280878,
2004-10-12, 01:33:00,VALID,919.394,VALID,0,VALID,100,VALID,0.0339617,VALID,18.8069,VALID,129,VALID,0.211128,
2004-10-12, 01:34:01,VALID,919.365,VALID,0,VALID,100,VALID,0,VALID,18.7848,VALID,129,VALID,0,
2004-10-12, 01:35:00,VALID,919.356,VALID,0,VALID,100,VALID,0,VALID,18.8111,VALID,129,VALID,0,
2004-10-12, 01:36:01,VALID,919.37,VALID,0,VALID,100,VALID,0,VALID,18.8201,VALID,129,VALID,0,
2004-10-12, 01:37:01,VALID,919.387,VALID,0,VALID,100,VALID,0,VALID,18.8171,VALID,129,VALID,0,
2004-10-12, 01:38:00,VALID,919.419,VALID,0,VALID,100,VALID,0.0169808,VALID,18.7818,VALID,129,VALID,0,
2004-10-12, 01:39:01,VALID,919.445,VALID,0,VALID,100,VALID,0,VALID,18.7431,VALID,97,VALID,0.286272,
2004-10-12, 01:40:01,VALID,919.457,VALID,0,VALID,100,VALID,0.0169808,VALID,18.7331,VALID,62,VALID,0.809443,
2004-10-12, 01:41:00,VALID,919.46,VALID,0,VALID,100,VALID,0.0169808,VALID,18.7205,VALID,59,VALID,0.982922,
2004-10-12, 01:42:01,VALID,919.442,VALID,0,VALID,100,VALID,0,VALID,18.7272,VALID,58,VALID,0.966264,
2004-10-12, 01:43:01,VALID,919.417,VALID,0,VALID,100,VALID,0.0169808,VALID,18.8496,VALID,68,VALID,1.02101,
2004-10-12, 01:44:01,VALID,919.391,VALID,0,VALID,100,VALID,0,VALID,18.9956,VALID,78,VALID,0.943638,
2004-10-12, 01:45:01,VALID,919.349,VALID,0,VALID,100,VALID,-0.0169808,VALID,19.0696,VALID,83,VALID,0.849609,
2004-10-12, 01:46:01,VALID,919.311,VALID,0,VALID,100,VALID,0,VALID,19.1086,VALID,88,VALID,0.781808,
2004-10-12, 01:47:01,VALID,919.295,VALID,0,VALID,100,VALID,0,VALID,19.1503,VALID,86,VALID,0.98371,
2004-10-12, 01:48:01,VALID,919.27,VALID,0,VALID,100,VALID,-0.0169808,VALID,19.1538,VALID,69,VALID,0.893102,
2004-10-12, 01:49:01,VALID,919.269,VALID,0,VALID,100,VALID,-0.0679233,VALID,19.1183,VALID,68,VALID,0.873633,
2004-10-12, 01:50:01,VALID,919.283,VALID,0,VALID,100,VALID,-0.0679233,VALID,19.0895,VALID,61,VALID,0.680432,
2004-10-12, 01:51:01,VALID,919.284,VALID,0,VALID,100,VALID,-0.0849042,VALID,19.0899,VALID,65,VALID,0.540879,
2004-10-12, 01:52:01,VALID,919.294,VALID,0,VALID,100,VALID,-0.101885,VALID,19.0964,VALID,71,VALID,0.636446,
2004-10-12, 01:53:01,VALID,919.322,VALID,0,VALID,100,VALID,-0.101885,VALID,19.116,VALID,86,VALID,0.57649,
2004-10-12, 01:54:01,VALID,919.337,VALID,0,VALID,100,VALID,-0.101885,VALID,19.1091,VALID,87,VALID,0.474516,
2004-10-12, 01:55:01,VALID,919.338,VALID,0,VALID,100,VALID,-0.101885,VALID,19.1128,VALID,86,VALID,0.339753,
2004-10-12, 01:56:01,VALID,919.341,VALID,0,VALID,100,VALID,-0.101885,VALID,19.1056,VALID,95,VALID,0.515253,
2004-10-12, 01:57:01,VALID,919.315,VALID,0,VALID,100,VALID,-0.118866,VALID,19.1222,VALID,98,VALID,0.579578,
2004-10-12, 01:58:01,VALID,919.294,VALID,0,VALID,100,VALID,-0.118866,VALID,19.1483,VALID,102,VALID,0.595022,
2004-10-12, 01:59:01,VALID,919.264,VALID,0,VALID,100,VALID,-0.118866,VALID,19.1575,VALID,103,VALID,0.295922,
2004-10-12, 02:00:01,VALID,919.235,VALID,0,VALID,100,VALID,-0.0679233,VALID,19.1771,VALID,103,VALID,0.550586,
2004-10-12, 02:01:01,VALID,919.232,VALID,0,VALID,100,VALID,-0.0509425,VALID,19.1831,VALID,103,VALID,0.504724,
2004-10-12, 02:02:01,VALID,919.219,VALID,0,VALID,100,VALID,-0.0679233,VALID,19.1898,VALID,103,VALID,0.259718,
2004-10-12, 02:03:01,VALID,919.223,VALID,0,VALID,100,VALID,-0.0339617,VALID,19.1921,VALID,103,VALID,0.263715,
2004-10-12, 02:04:01,VALID,919.211,VALID,0,VALID,100,VALID,0.0169808,VALID,19.2072,VALID,103,VALID,0.15332,
2004-10-12, 02:05:01,VALID,919.224,VALID,0,VALID,100,VALID,0,VALID,19.24,VALID,103,VALID,0.0267857,
2004-10-12, 02:06:01,VALID,919.23,VALID,0,VALID,100,VALID,0.0339617,VALID,19.2398,VALID,103,VALID,0,
2004-10-12, 02:07:01,VALID,919.216,VALID,0,VALID,100,VALID,0,VALID,19.2591,VALID,103,VALID,0,
2004-10-12, 02:08:01,VALID,919.203,VALID,0,VALID,100,VALID,0.0169808,VALID,19.2686,VALID,103,VALID,0,
2004-10-12, 02:09:01,VALID,919.183,VALID,0,VALID,100,VALID,0,VALID,19.2919,VALID,103,VALID,0,
2004-10-12, 02:10:00,VALID,919.163,VALID,0,VALID,100,VALID,0,VALID,19.2822,VALID,103,VALID,0,
2004-10-12, 02:11:00,VALID,919.141,VALID,0,VALID,100,VALID,0.0169808,VALID,19.2854,VALID,103,VALID,0,
2004-10-12, 02:12:00,VALID,919.13,VALID,0,VALID,100,VALID,0,VALID,19.2981,VALID,103,VALID,0,
2004-10-12, 02:13:00,VALID,919.137,VALID,0,VALID,100,VALID,0,VALID,19.3013,VALID,103,VALID,0,
2004-10-12, 02:14:00,VALID,919.14,VALID,0,VALID,100,VALID,0.0169808,VALID,19.3011,VALID,103,VALID,0,
2004-10-12, 02:15:00,VALID,919.154,VALID,0,VALID,100,VALID,0.0339617,VALID,19.3105,VALID,103,VALID,0,
2004-10-12, 02:16:00,VALID,919.158,VALID,0,VALID,100,VALID,0.0169808,VALID,19.3334,VALID,103,VALID,0,
2004-10-12, 02:17:00,VALID,919.154,VALID,0,VALID,100,VALID,0.0339617,VALID,19.3267,VALID,103,VALID,0,
2004-10-12, 02:18:00,VALID,919.145,VALID,0,VALID,100,VALID,0,VALID,19.3011,VALID,103,VALID,0.0289634,
2004-10-12, 02:19:00,VALID,919.121,VALID,0,VALID,100,VALID,-0.0509425,VALID,19.2954,VALID,103,VALID,0,
2004-10-12, 02:20:00,VALID,919.112,VALID,0,VALID,100,VALID,-0.0509425,VALID,19.2859,VALID,103,VALID,0,
2004-10-12, 02:21:00,VALID,919.082,VALID,0,VALID,100,VALID,-0.0679233,VALID,19.2695,VALID,103,VALID,0,
2004-10-12, 02:22:00,VALID,919.075,VALID,0,VALID,100,VALID,-0.0509425,VALID,19.2725,VALID,103,VALID,0,
2004-10-12, 02:23:00,VALID,919.071,VALID,0,VALID,100,VALID,-0.0339617,VALID,19.2785,VALID,103,VALID,0,
2004-10-12, 02:24:00,VALID,919.06,VALID,0,VALID,100,VALID,-0.0169808,VALID,19.2852,VALID,103,VALID,0.158454,
2004-10-12, 02:25:00,VALID,919.076,VALID,0,VALID,100,VALID,-0.0339617,VALID,19.2857,VALID,103,VALID,0.587391,
2004-10-12, 02:26:00,VALID,919.115,VALID,0,VALID,100,VALID,-0.0509425,VALID,19.2693,VALID,107,VALID,0.719477,
2004-10-12, 02:27:00,VALID,919.143,VALID,0,VALID,100,VALID,-0.0679233,VALID,19.2626,VALID,112,VALID,0.603516,
2004-10-12, 02:28:00,VALID,919.155,VALID,0,VALID,100,VALID,-0.0339617,VALID,19.2698,VALID,119,VALID,0.493608,
2004-10-12, 02:29:00,VALID,919.164,VALID,0,VALID,100,VALID,-0.0169808,VALID,19.2663,VALID,153,VALID,0.657493,
2004-10-12, 02:30:00,VALID,919.17,VALID,0,VALID,100,VALID,-0.0339617,VALID,19.2631,VALID,159,VALID,0.630814,
2004-10-12, 02:31:00,VALID,919.147,VALID,0,VALID,100,VALID,-0.0509425,VALID,19.2524,VALID,157,VALID,0.43532,
2004-10-12, 02:32:00,VALID,919.109,VALID,0,VALID,100,VALID,-0.0339617,VALID,19.2599,VALID,142,VALID,0.484738,
2004-10-12, 02:33:00,VALID,919.087,VALID,0,VALID,100,VALID,-0.0509425,VALID,19.2596,VALID,134,VALID,0.378906,
2004-10-12, 02:34:00,VALID,919.079,VALID,0,VALID,100,VALID,-0.0509425,VALID,19.2504,VALID,112,VALID,0.506214,
2004-10-12, 02:35:00,VALID,919.05,VALID,0,VALID,100,VALID,-0.0169808,VALID,19.2467,VALID,121,VALID,0.64577,
2004-10-12, 02:36:00,VALID,919.042,VALID,0,VALID,100,VALID,-0.0679233,VALID,19.2534,VALID,135,VALID,0.66107,
2004-10-12, 02:37:00,VALID,919.025,VALID,0,VALID,100,VALID,-0.0849042,VALID,19.2698,VALID,155,VALID,0.457127,
2004-10-12, 02:38:00,VALID,919.009,VALID,0,VALID,100,VALID,-0.0509425,VALID,19.2596,VALID,152,VALID,0.263421,
2004-10-12, 02:39:00,VALID,919,VALID,0,VALID,100,VALID,-0.0679233,VALID,19.2926,VALID,137,VALID,0,
2004-10-12, 02:40:00,VALID,918.984,VALID,0,VALID,100,VALID,-0.0339617,VALID,19.2887,VALID,121,VALID,0.100991,
2004-10-12, 02:41:00,VALID,918.988,VALID,0,VALID,100,VALID,-0.0169808,VALID,19.2956,VALID,113,VALID,0.337984,
2004-10-12, 02:42:00,VALID,918.964,VALID,0,VALID,100,VALID,-0.0509425,VALID,19.2889,VALID,58,VALID,0.580305,
2004-10-12, 02:43:00,VALID,918.935,VALID,0,VALID,100,VALID,-0.0509425,VALID,19.3021,VALID,22,VALID,0.694271,
2004-10-12, 02:44:00,VALID,918.932,VALID,0,VALID,100,VALID,-0.0509425,VALID,19.2954,VALID,15,VALID,0.739397,
2004-10-12, 02:45:00,VALID,918.903,VALID,0,VALID,100,VALID,-0.0509425,VALID,19.276,VALID,34,VALID,0.461496,
2004-10-12, 02:46:00,VALID,918.885,VALID,0,VALID,100,VALID,-0.0679233,VALID,19.2569,VALID,34,VALID,0.27939,
2004-10-12, 02:47:00,VALID,918.867,VALID,0,VALID,100,VALID,-0.101885,VALID,19.2437,VALID,34,VALID,0.247514,
2004-10-12, 02:48:00,VALID,918.858,VALID,0,VALID,100,VALID,0.0169808,VALID,19.2365,VALID,34,VALID,0.196555,
2004-10-12, 02:49:00,VALID,918.844,VALID,0,VALID,100,VALID,0.0509425,VALID,19.21,VALID,34,VALID,0.15293,
2004-10-12, 02:50:00,VALID,918.833,VALID,0,VALID,100,VALID,0,VALID,19.2005,VALID,34,VALID,0.2883,
2004-10-12, 02:51:00,VALID,918.841,VALID,0,VALID,100,VALID,0.0339617,VALID,19.1814,VALID,34,VALID,0.237827,
2004-10-12, 02:52:00,VALID,918.854,VALID,0,VALID,100,VALID,0,VALID,19.1685,VALID,34,VALID,0.355923,
2004-10-12, 02:53:00,VALID,918.887,VALID,0,VALID,100,VALID,0.0679233,VALID,19.1452,VALID,52,VALID,0.452363,
2004-10-12, 02:54:00,VALID,918.922,VALID,0,VALID,100,VALID,0.0169808,VALID,19.1325,VALID,82,VALID,0.609553,
2004-10-12, 02:55:00,VALID,918.956,VALID,0,VALID,100,VALID,0,VALID,19.1037,VALID,65,VALID,0.881722,
2004-10-12, 02:56:00,VALID,918.975,VALID,0,VALID,100,VALID,0.0339617,VALID,19.0783,VALID,56,VALID,1.01599,
2004-10-12, 02:57:00,VALID,918.971,VALID,0,VALID,100,VALID,0.0509425,VALID,19.0592,VALID,69,VALID,0.667361,
2004-10-12, 02:58:00,VALID,918.952,VALID,0,VALID,100,VALID,0.0339617,VALID,19.0617,VALID,111,VALID,0.861235,
2004-10-12, 02:59:00,VALID,918.93,VALID,0,VALID,100,VALID,0.0169808,VALID,19.0677,VALID,120,VALID,0.651867,
2004-10-12, 03:00:00,VALID,918.897,VALID,0,VALID,100,VALID,0.0169808,VALID,19.0873,VALID,124,VALID,0.62128,
2004-10-12, 03:01:00,VALID,918.867,VALID,0,VALID,100,VALID,0.0509425,VALID,19.0967,VALID,118,VALID,0.480945,
2004-10-12, 03:02:00,VALID,918.849,VALID,0,VALID,100,VALID,0.0339617,VALID,19.1067,VALID,127,VALID,0.536882,
2004-10-12, 03:03:00,VALID,918.832,VALID,0,VALID,100,VALID,0.0169808,VALID,19.0938,VALID,125,VALID,0.425223,
2004-10-12, 03:04:00,VALID,918.82,VALID,0,VALID,100,VALID,0.0509425,VALID,19.0908,VALID,115,VALID,0.598189,
2004-10-12, 03:05:00,VALID,918.794,VALID,0,VALID,100,VALID,0.0509425,VALID,19.0744,VALID,112,VALID,0.896007,
2004-10-12, 03:06:00,VALID,918.782,VALID,0,VALID,100,VALID,0.0509425,VALID,19.0677,VALID,105,VALID,0.855755,
2004-10-12, 03:07:00,VALID,918.778,VALID,0,VALID,100,VALID,0.0849042,VALID,19.0617,VALID,94,VALID,0.765625,
2004-10-12, 03:08:00,VALID,918.749,VALID,0,VALID,100,VALID,0.0849042,VALID,19.0421,VALID,95,VALID,0.792225,
2004-10-12, 03:09:00,VALID,918.727,VALID,0,VALID,100,VALID,0.0339617,VALID,19.0714,VALID,112,VALID,0.990234,
2004-10-12, 03:10:00,VALID,918.711,VALID,0,VALID,100,VALID,0.0849042,VALID,19.0806,VALID,120,VALID,0.962936,
2004-10-12, 03:11:00,VALID,918.705,VALID,0,VALID,100,VALID,0.0509425,VALID,19.0873,VALID,117,VALID,0.948785,
2004-10-12, 03:12:00,VALID,918.683,VALID,0,VALID,100,VALID,0.0509425,VALID,19.0841,VALID,131,VALID,0.852344,
2004-10-12, 03:13:00,VALID,918.642,VALID,0,VALID,100,VALID,0.0679233,VALID,19.0806,VALID,131,VALID,0.928354,
2004-10-12, 03:14:00,VALID,918.62,VALID,0,VALID,100,VALID,0.0679233,VALID,19.0967,VALID,127,VALID,1.04013,
2004-10-12, 03:15:00,VALID,918.574,VALID,0,VALID,100,VALID,0.0509425,VALID,19.0903,VALID,116,VALID,0.946948,
2004-10-12, 03:16:00,VALID,918.539,VALID,0,VALID,100,VALID,0.0849042,VALID,19.0838,VALID,110,VALID,0.938408,
2004-10-12, 03:17:00,VALID,918.517,VALID,0,VALID,100,VALID,0.0849042,VALID,19.0774,VALID,116,VALID,0.915104,
2004-10-12, 03:18:00,VALID,918.499,VALID,0,VALID,100,VALID,-0.0169808,VALID,19.0823,VALID,111,VALID,1.16815,
2004-10-12, 03:19:00,VALID,918.485,VALID,0,VALID,100,VALID,-0.0679233,VALID,19.0924,VALID,105,VALID,1.17569,
2004-10-12, 03:20:00,VALID,918.493,VALID,0,VALID,100,VALID,-0.0339617,VALID,19.0892,VALID,98,VALID,1.05069,
2004-10-12, 03:21:00,VALID,918.495,VALID,0,VALID,100,VALID,-0.0509425,VALID,19.0989,VALID,110,VALID,1.24809,
2004-10-12, 03:22:00,VALID,918.506,VALID,0,VALID,100,VALID,-0.0679233,VALID,19.1056,VALID,110,VALID,1.01934,
2004-10-12, 03:23:00,VALID,918.526,VALID,0,VALID,100,VALID,-0.0679233,VALID,19.1123,VALID,125,VALID,0.903232,
2004-10-12, 03:24:00,VALID,918.533,VALID,0,VALID,100,VALID,-0.0849042,VALID,19.1054,VALID,128,VALID,0.835449,
2004-10-12, 03:25:00,VALID,918.548,VALID,0,VALID,100,VALID,-0.0509425,VALID,19.1116,VALID,132,VALID,0.928646,
2004-10-12, 03:26:00,VALID,918.567,VALID,0,VALID,100,VALID,-0.0849042,VALID,19.122,VALID,132,VALID,1.07558,
2004-10-12, 03:27:00,VALID,918.571,VALID,0,VALID,100,VALID,-0.0509425,VALID,19.128,VALID,134,VALID,1.08105,
2004-10-12, 03:28:00,VALID,918.549,VALID,0,VALID,100,VALID,-0.0509425,VALID,19.1284,VALID,133,VALID,0.888021,
2004-10-12, 03:29:00,VALID,918.538,VALID,0,VALID,100,VALID,-0.0509425,VALID,19.1185,VALID,138,VALID,0.713415,
2004-10-12, 03:30:00,VALID,918.53,VALID,0,VALID,100,VALID,-0.0509425,VALID,19.1215,VALID,148,VALID,1.35707,
2004-10-12, 03:31:00,VALID,918.491,VALID,0,VALID,100,VALID,-0.0849042,VALID,19.1222,VALID,151,VALID,1.33346,
2004-10-12, 03:32:00,VALID,918.469,VALID,0,VALID,100,VALID,-0.0679233,VALID,19.125,VALID,148,VALID,1.54222,
2004-10-12, 03:33:00,VALID,918.451,VALID,0,VALID,100,VALID,-0.0509425,VALID,19.1217,VALID,153,VALID,1.55841,
2004-10-12, 03:34:00,VALID,918.422,VALID,0,VALID,100,VALID,-0.0679233,VALID,19.1245,VALID,151,VALID,1.96875,
2004-10-12, 03:35:00,VALID,918.416,VALID,0,VALID,100,VALID,-0.0679233,VALID,19.1225,VALID,145,VALID,1.57475,
2004-10-12, 03:36:00,VALID,918.42,VALID,0,VALID,100,VALID,-0.0679233,VALID,19.1058,VALID,149,VALID,1.41964,
2004-10-12, 03:37:00,VALID,918.437,VALID,0,VALID,100,VALID,-0.101885,VALID,19.1051,VALID,141,VALID,1.23765,
2004-10-12, 03:38:00,VALID,918.454,VALID,0,VALID,100,VALID,-0.0169808,VALID,19.0922,VALID,140,VALID,1.62928,
2004-10-12, 03:39:00,VALID,918.466,VALID,0,VALID,100,VALID,-0.0509425,VALID,19.0892,VALID,136,VALID,1.45443,
2004-10-12, 03:40:00,VALID,918.463,VALID,0,VALID,100,VALID,-0.0339617,VALID,19.0828,VALID,137,VALID,1.12715,
2004-10-12, 03:41:00,VALID,918.452,VALID,0,VALID,100,VALID,-0.0679233,VALID,19.086,VALID,134,VALID,1.55781,
2004-10-12, 03:42:00,VALID,918.422,VALID,0,VALID,100,VALID,-0.0339617,VALID,19.0728,VALID,127,VALID,1.11541,